FW7718 Weather Reports


Display with metric or nautical units.
time (UTC)temp
F
wind
direction
speed
MPH
gust
MPH
rain 1hr
in
rain 24hr
in
rain mn
in
humidity
%
barometer
mb
20260504013253 68 189 5.0 5.0 0.00 0.00 0.00 53 1017.2
20260504012749 68 190 3.0 6.0 0.00 0.00 0.00 53 1017.3
20260504012247 69 174 3.0 3.0 0.00 0.00 0.00 53 1017.1
20260504011744 69 178 2.0 2.0 0.00 0.00 0.00 52 1017.3
20260504011241 70 187 3.0 3.0 0.00 0.00 0.00 51 1017.2
20260504010737 70 189 4.0 5.0 0.00 0.00 0.00 50 1017.1
20260504010233 71 183 3.0 3.0 0.00 0.00 0.00 49 1017.0
20260504005730 71 205 3.0 3.0 0.00 0.00 0.00 48 1017.2
20260504005227 72 203 3.0 3.0 0.00 0.00 0.00 46 1017.3
20260504004724 73 189 4.0 5.0 0.00 0.00 0.00 45 1017.1
20260504004221 73 211 4.0 5.0 0.00 0.00 0.00 44 1017.0
20260504003718 74 207 5.0 6.0 0.00 0.00 0.00 43 1016.9
20260504003215 74 207 5.0 7.0 0.00 0.00 0.00 42 1017.1
20260504002712 75 198 7.0 8.0 0.00 0.00 0.00 41 1017.0
20260504002209 75 207 5.0 6.0 0.00 0.00 0.00 41 1017.2
20260504001707 76 191 6.0 7.0 0.00 0.00 0.00 41 1017.1
20260504001203 76 197 5.0 6.0 0.00 0.00 0.00 42 1017.2
20260504000700 77 205 6.0 7.0 0.00 0.00 0.00 40 1017.1
20260504000157 77 200 5.0 9.0 0.00 0.00 0.00 42 1017.0
20260503235655 77 207 6.0 7.0 0.00 0.00 0.00 41 1017.3
20260503235151 77 192 6.0 7.0 0.00 0.00 0.00 40 1017.5
20260503234649 78 198 5.0 6.0 0.00 0.00 0.00 39 1017.4
20260503234148 78 198 8.0 10.0 0.00 0.00 0.00 39 1017.3
20260503233644 78 201 8.0 9.0 0.00 0.00 0.00 36 1017.2
20260503233139 78 210 9.0 10.0 0.00 0.00 0.00 37 1017.3
20260503232637 78 209 9.0 10.0 0.00 0.00 0.00 36 1017.5
20260503232134 78 201 11.0 13.0 0.00 0.00 0.00 36 1017.6
20260503231632 79 210 11.0 14.0 0.00 0.00 0.00 36 1017.5
20260503231128 79 242 9.0 11.0 0.00 0.00 0.00 36 1017.5
20260503230625 79 212 9.0 10.0 0.00 0.00 0.00 34 1017.6
20260503230122 79 211 9.0 11.0 0.00 0.00 0.00 34 1017.7
20260503225620 79 205 10.0 13.0 0.00 0.00 0.00 35 1017.6
20260503225119 79 222 6.0 8.0 0.00 0.00 0.00 32 1017.5
20260503224617 79 212 12.0 15.0 0.00 0.00 0.00 34 1017.5
20260503224115 80 214 9.0 10.0 0.00 0.00 0.00 34 1017.5
20260503223613 80 210 9.0 11.0 0.00 0.00 0.00 34 1017.6
20260503223108 80 205 6.0 8.0 0.00 0.00 0.00 34 1017.9
20260503222606 80 222 12.0 16.0 0.00 0.00 0.00 32 1018.0
20260503222104 80 193 4.0 5.0 0.00 0.00 0.00 37 1017.9
20260503221602 80 191 10.0 11.0 0.00 0.00 0.00 32 1017.9
20260503221059 80 217 9.0 10.0 0.00 0.00 0.00 31 1017.8
20260503220555 80 214 7.0 8.0 0.00 0.00 0.00 34 1017.7
20260503220052 80 207 9.0 10.0 0.00 0.00 0.00 33 1017.7
20260503215549 80 192 6.0 7.0 0.00 0.00 0.00 33 1018.0
20260503215046 80 173 14.0 15.0 0.00 0.00 0.00 32 1018.0
20260503214544 80 212 9.0 13.0 0.00 0.00 0.00 34 1018.0
20260503214040 79 177 11.0 15.0 0.00 0.00 0.00 34 1018.1
20260503213539 80 217 6.0 7.0 0.00 0.00 0.00 35 1018.4
20260503213035 81 193 7.0 8.0 0.00 0.00 0.00 33 1018.3
20260503212533 81 225 6.0 8.0 0.00 0.00 0.00 34 1018.3
20260503212030 81 268 7.0 8.0 0.00 0.00 0.00 34 1018.2
20260503211527 81 219 6.0 7.0 0.00 0.00 0.00 35 1018.5
20260503211023 81 190 11.0 13.0 0.00 0.00 0.00 34 1018.7
20260503210520 81 240 9.0 10.0 0.00 0.00 0.00 37 1018.7
20260503210015 81 182 4.0 6.0 0.00 0.00 0.00 37 1018.9
20260503205512 81 228 7.0 9.0 0.00 0.00 0.00 35 1018.7
20260503205009 80 182 5.0 7.0 0.00 0.00 0.00 36 1018.9
20260503204506 79 219 8.0 9.0 0.00 0.00 0.00 34 1019.1
20260503204003 81 215 8.0 9.0 0.00 0.00 0.00 34 1019.1
20260503203500 80 214 8.0 10.0 0.00 0.00 0.00 34 1019.1
20260503202956 80 202 9.0 10.0 0.00 0.00 0.00 34 1019.1
20260503202455 80 240 8.0 9.0 0.00 0.00 0.00 37 1019.2
20260503201953 80 202 10.0 10.0 0.00 0.00 0.00 33 1019.4
20260503201450 81 262 9.0 11.0 0.00 0.00 0.00 38 1019.5
20260503200947 80 272 6.0 7.0 0.00 0.00 0.00 34 1019.5
20260503200444 80 224 8.0 10.0 0.00 0.00 0.00 37 1019.5
20260503195940 80 208 11.0 13.0 0.00 0.00 0.00 36 1019.7
20260503195437 80 211 8.0 10.0 0.00 0.00 0.00 39 1019.7
20260503194934 80 220 7.0 8.0 0.00 0.00 0.00 37 1019.8
20260503194431 80 219 10.0 11.0 0.00 0.00 0.00 36 1019.8
20260503193926 80 273 6.0 7.0 0.00 0.00 0.00 37 1020.0
20260503193422 80 219 10.0 11.0 0.00 0.00 0.00 37 1020.1
20260503192918 80 210 12.0 15.0 0.00 0.00 0.00 37 1020.0
20260503192414 80 225 6.0 8.0 0.00 0.00 0.00 39 1020.1
20260503191910 80 233 6.0 8.0 0.00 0.00 0.00 42 1020.2
20260503191408 80 216 9.0 10.0 0.00 0.00 0.00 37 1020.2
20260503190904 80 222 6.0 8.0 0.00 0.00 0.00 40 1020.2
20260503190402 80 216 11.0 13.0 0.00 0.00 0.00 37 1020.4
20260503185858 80 242 9.0 10.0 0.00 0.00 0.00 37 1020.3
20260503185355 79 248 11.0 13.0 0.00 0.00 0.00 39 1020.5
20260503184854 80 253 8.0 9.0 0.00 0.00 0.00 37 1020.5
20260503184350 80 223 9.0 10.0 0.00 0.00 0.00 39 1020.8
20260503183846 79 226 12.0 14.0 0.00 0.00 0.00 37 1020.6
20260503183344 79 244 10.0 11.0 0.00 0.00 0.00 39 1020.8
20260503182841 79 225 11.0 13.0 0.00 0.00 0.00 38 1021.0
20260503182340 79 220 12.0 14.0 0.00 0.00 0.00 37 1021.0
20260503181837 79 221 8.0 9.0 0.00 0.00 0.00 39 1021.3
20260503181334 79 275 11.0 13.0 0.00 0.00 0.00 39 1021.2
20260503180830 79 221 7.0 8.0 0.00 0.00 0.00 43 1021.3
20260503180328 79 207 11.0 13.0 0.00 0.00 0.00 39 1021.2
20260503175824 79 224 9.0 11.0 0.00 0.00 0.00 40 1021.5
20260503175323 78 221 9.0 10.0 0.00 0.00 0.00 38 1021.4
20260503174818 78 201 12.0 15.0 0.00 0.00 0.00 38 1021.7
20260503174316 78 199 7.0 8.0 0.00 0.00 0.00 41 1021.7
20260503173817 78 213 7.0 7.0 0.00 0.00 0.00 40 1021.8
20260503173313 78 244 7.0 10.0 0.00 0.00 0.00 45 1022.1
20260503172810 77 201 11.0 13.0 0.00 0.00 0.00 40 1022.0
20260503172307 77 237 9.0 10.0 0.00 0.00 0.00 40 1022.0
20260503171803 77 241 11.0 14.0 0.00 0.00 0.00 43 1022.1
20260503171300 77 242 7.0 8.0 0.00 0.00 0.00 43 1022.3
20260503170757 77 217 10.0 11.0 0.00 0.00 0.00 42 1022.2
20260503170254 77 258 9.0 10.0 0.00 0.00 0.00 46 1022.4
20260503160216 74 228 10.0 13.0 0.00 0.00 0.00 49 1023.1
20260503150646 71 233 9.0 11.0 0.00 0.00 0.00 53 1022.9
20260503150142 71 228 9.0 10.0 0.00 0.00 0.00 55 1022.6
20260503140107 64 227 9.0 9.0 0.00 0.00 0.00 69 1022.7
20260503131037 58 214 3.0 3.0 0.00 0.00 0.00 80 1022.6
20260503130533 57 203 3.0 3.0 0.00 0.00 0.00 80 1022.6
20260503110424 52 199 2.0 2.0 0.00 0.00 0.00 82 1021.8
20260503090310 53 188 0.0 0.0 0.00 0.00 0.00 82 1021.3
20260503081237 54 188 0.0 0.0 0.00 0.00 0.00 80 1021.4
20260503080732 54 188 0.0 0.0 0.00 0.00 0.00 79 1021.1
20260503080230 55 188 0.0 0.0 0.00 0.00 0.00 79 1021.3
20260503072707 55 188 0.0 1.0 0.00 0.00 0.00 77 1021.5
20260503072203 55 188 1.0 1.0 0.00 0.00 0.00 77 1021.5
20260503071700 56 188 1.0 1.0 0.00 0.00 0.00 77 1021.7
20260503071157 56 188 0.0 1.0 0.00 0.00 0.00 76 1021.6
20260503070654 56 188 1.0 1.0 0.00 0.00 0.00 75 1021.6
20260503070152 56 188 1.0 1.0 0.00 0.00 0.00 75 1021.5
20260503060115 58 180 1.0 1.0 0.00 0.00 0.00 70 1021.4
20260503055107 58 180 1.0 1.0 0.00 0.00 0.00 70 1021.3
20260503054603 58 180 1.0 1.0 0.00 0.00 0.00 70 1021.3
20260503054100 58 180 1.0 1.0 0.00 0.00 0.00 70 1021.6
20260503053558 59 180 1.0 1.0 0.00 0.00 0.00 69 1021.6
20260503053055 59 179 1.0 1.0 0.00 0.00 0.00 69 1021.5
20260503052552 59 179 1.0 1.0 0.00 0.00 0.00 69 1021.5
20260503052048 59 179 1.0 1.0 0.00 0.00 0.00 70 1021.3
20260503051544 59 179 1.0 1.0 0.00 0.00 0.00 70 1021.5
20260503051042 59 179 1.0 2.0 0.00 0.00 0.00 69 1021.3
20260503050537 59 187 2.0 2.0 0.00 0.00 0.00 69 1021.1
20260503050035 59 186 1.0 2.0 0.00 0.00 0.00 68 1021.3
20260503045532 60 190 2.0 2.0 0.00 0.00 0.00 67 1021.2
20260503045030 60 189 2.0 2.0 0.00 0.00 0.00 66 1021.5
20260503044526 60 199 2.0 2.0 0.00 0.00 0.00 66 1021.4
20260503044024 60 190 2.0 2.0 0.00 0.00 0.00 66 1021.3
20260503043519 60 186 3.0 5.0 0.00 0.00 0.00 66 1021.1
20260503043016 60 167 2.0 2.0 0.00 0.00 0.00 67 1021.3
20260503042513 60 167 1.0 2.0 0.00 0.00 0.00 67 1021.2
20260503042009 60 172 2.0 2.0 0.00 0.00 0.00 67 1021.3
20260503041507 60 189 3.0 3.0 0.00 0.00 0.00 67 1021.2
20260503041005 61 167 2.0 2.0 0.00 0.00 0.00 67 1021.4
20260503040502 61 162 1.0 1.0 0.00 0.00 0.00 65 1021.3
20260503035959 61 161 1.0 1.0 0.00 0.00 0.00 64 1021.5
20260503035455 61 161 1.0 1.0 0.00 0.00 0.00 64 1021.4
20260503034953 61 161 1.0 1.0 0.00 0.00 0.00 65 1021.3
20260503034450 62 132 2.0 2.0 0.00 0.00 0.00 65 1021.3
20260503033947 62 105 1.0 1.0 0.00 0.00 0.00 64 1021.4
20260503033445 62 105 1.0 1.0 0.00 0.00 0.00 64 1021.3
20260503032943 62 106 0.0 0.0 0.00 0.00 0.00 64 1021.3
20260503032441 63 105 1.0 1.0 0.00 0.00 0.00 62 1021.1
20260503031938 63 105 1.0 1.0 0.00 0.00 0.00 60 1021.1
20260503031436 64 105 1.0 1.0 0.00 0.00 0.00 58 1021.2
20260503030932 64 105 1.0 2.0 0.00 0.00 0.00 58 1021.1
20260503030428 64 105 1.0 1.0 0.00 0.00 0.00 57 1021.2
20260503025925 64 105 1.0 1.0 0.00 0.00 0.00 58 1021.1
20260503025422 64 105 1.0 2.0 0.00 0.00 0.00 58 1021.2
20260503024920 63 105 1.0 1.0 0.00 0.00 0.00 59 1020.9
20260503024416 63 105 0.0 0.0 0.00 0.00 0.00 62 1021.0
20260503023914 63 105 0.0 0.0 0.00 0.00 0.00 61 1020.8
20260503023410 64 105 0.0 0.0 0.00 0.00 0.00 62 1021.0
20260503022907 64 105 1.0 1.0 0.00 0.00 0.00 63 1021.0
20260503022402 64 105 0.0 1.0 0.00 0.00 0.00 63 1020.7
20260503021858 64 105 1.0 1.0 0.00 0.00 0.00 62 1020.8
20260503021355 64 105 1.0 1.0 0.00 0.00 0.00 57 1020.8
20260503020852 65 105 0.0 0.0 0.00 0.00 0.00 61 1020.6
20260503020350 66 105 0.0 0.0 0.00 0.00 0.00 60 1020.6
20260503015846 66 105 1.0 1.0 0.00 0.00 0.00 52 1020.5
20260503015343 66 105 1.0 1.0 0.00 0.00 0.00 53 1020.4
20260503014839 66 105 1.0 1.0 0.00 0.00 0.00 58 1020.7
20260503014337 66 101 2.0 2.0 0.00 0.00 0.00 55 1020.4
20260503013834 65 58 0.0 0.0 0.00 0.00 0.00 59 1020.4